Retour au catalogue

DELTA 1 DEB

LostSSO
NORAD 37644·DEBRIS·🇺🇸 United States

Lancé Mar 5, 1978 depuis Vandenberg Space Force Base

Loading…

Prochains Passages (prochaines 24 heures)

TLE

PériméSource: Space-Track

Époque: Sep 15, 2025, 11:43 UTC

1 37644U 78026JF  25258.48881659  .00002124  00000-0  86162-3 0  9993
2 37644  98.6308 150.1935 0050322 344.6703  15.2951 14.28026763633760

Suivez DELTA 1 DEB en temps réel avec AllMySat

Download on the App Store